sat.trackr.live / text

‹ back to catalog

HULIANWANG DIGUI-21

NORAD 63688 · 2025-086B

PAYLOAD ACTIVE UNKNOWN

§ Identity

Operator
Country
PRC
Launch date
2025-04-28
Launch site
WSC
Launch vehicle
Mass (kg)
RCS (m²)

External: N2YO · Heavens-Above · Gunter

§ Orbital elements

Epoch: 2026-05-25T03:23:15.981216Z

Period
108.73 min
Inclination
86.5062°
Eccentricity
0.0001507
Mean motion
13.24407636 rev/d
Perigee alt
1,166.8 km
Apogee alt
1,169.1 km
Semi-major
7,546.1 km
B*
9.6441e-5
RAAN
320.9510°
Arg perigee
77.6001°
Mean anomaly
282.5302°
Rev number
5,181

§ Raw data

HULIANWANG DIGUI-211 63688U 25086B   26145.14115719  .00000056  00000+0  96441-4 0  99972 63688  86.5062 320.9510 0001507  77.6001 282.5302 13.24407636 51817

JSON: /api/v1/satellites/63688 · /tle

For live sub-satellite position, see the globe view (requires WebGL).

§ Visibility from observer

Set your observer location to see the next 7 days of passes ≥ 10°. The values pass through the URL so the page stays shareable.

No JS? Fill the form by hand. The geolocation button needs JavaScript.